<?xml version="1.0" encoding="UTF-8" standalone="no" ?><gpx xmlns="http://www.topografix.com/GPX/1/1" xmlns:gpxx="http://www.garmin.com/xmlschemas/GpxExtensions/v3" xmlns:wptx1="http://www.garmin.com/xmlschemas/WaypointExtension/v1" xmlns:gpxtpx="http://www.garmin.com/xmlschemas/TrackPointExtension/v1" creator="GuideVTT.com" version="1.1" xmlns:xsi="http://www.w3.org/2001/XMLSchema-instance" xsi:schemaLocation="http://www.topografix.com/GPX/1/1 http://www.topografix.com/GPX/1/1/gpx.xsd http://www.garmin.com/xmlschemas/GpxExtensions/v3 http://www8.garmin.com/xmlschemas/GpxExtensionsv3.xsd http://www.garmin.com/xmlschemas/WaypointExtension/v1 http://www8.garmin.com/xmlschemas/WaypointExtensionv1.xsd http://www.garmin.com/xmlschemas/TrackPointExtension/v1 http://www.garmin.com/xmlschemas/TrackPointExtensionv1.xsd">
<metadata><link href="http://www.garmin.com"><text>Garmin International</text></link><time>2013-06-22T15:13:50Z</time></metadata>
<trk><name>barillette_10km.gpx</name><extensions><gpxx:TrackExtension><gpxx:DisplayColor>Cyan</gpxx:DisplayColor></gpxx:TrackExtension></extensions><trkseg>
<trkpt lat="46.400547959" lon="6.17183025"><ele>532</ele><time>-0-0T0:0:0Z</time></trkpt>
<trkpt lat="46.40054787499999" lon="6.171830082"><ele>532</ele><time>-0-0T0:0:0Z</time></trkpt>
<trkpt lat="46.40004873299999" lon="6.171247959"><ele>532</ele><time>-0-0T0:0:0Z</time></trkpt>
<trkpt lat="46.399834156" lon="6.171033382"><ele>533</ele><time>-0-0T0:0:0Z</time></trkpt>
<trkpt lat="46.39991998699999" lon="6.170840263"><ele>533</ele><time>-0-0T0:0:0Z</time></trkpt>
<trkpt lat="46.39999140099999" lon="6.170679666000001"><ele>533</ele><time>-0-0T0:0:0Z</time></trkpt>
<trkpt lat="46.39999140099999" lon="6.170679666000001"><ele>533</ele><time>-0-0T0:0:0Z</time></trkpt>
<trkpt lat="46.39999140099999" lon="6.170679666000001"><ele>533</ele><time>-0-0T0:0:0Z</time></trkpt>
<trkpt lat="46.400005817" lon="6.170647144"><ele>533</ele><time>-0-0T0:0:0Z</time></trkpt>
<trkpt lat="46.40004873299999" lon="6.170539856"><ele>534</ele><time>-0-0T0:0:0Z</time></trkpt>
<trkpt lat="46.40007019" lon="6.170496941"><ele>534</ele><time>-0-0T0:0:0Z</time></trkpt>
<trkpt lat="46.400284767" lon="6.169960499"><ele>534</ele><time>-0-0T0:0:0Z</time></trkpt>
<trkpt lat="46.400392056" lon="6.169660091"><ele>534</ele><time>-0-0T0:0:0Z</time></trkpt>
<trkpt lat="46.400477886" lon="6.169424057000001"><ele>534</ele><time>-0-0T0:0:0Z</time></trkpt>
<trkpt lat="46.400606632" lon="6.16912365"><ele>535</ele><time>-0-0T0:0:0Z</time></trkpt>
<trkpt lat="46.400671005" lon="6.168930531000001"><ele>535</ele><time>-0-0T0:0:0Z</time></trkpt>
<trkpt lat="46.400821209" lon="6.168587208"><ele>536</ele><time>-0-0T0:0:0Z</time></trkpt>
<trkpt lat="46.401014328" lon="6.168179512"><ele>536</ele><time>-0-0T0:0:0Z</time></trkpt>
<trkpt lat="46.401121616" lon="6.167943478"><ele>536</ele><time>-0-0T0:0:0Z</time></trkpt>
<trkpt lat="46.40127181999999" lon="6.167685986"><ele>537</ele><time>-0-0T0:0:0Z</time></trkpt>
<trkpt lat="46.401422024" lon="6.167471409000001"><ele>537</ele><time>-0-0T0:0:0Z</time></trkpt>
<trkpt lat="46.401517075" lon="6.167322043"><ele>537</ele><time>-0-0T0:0:0Z</time></trkpt>
<trkpt lat="46.401517075" lon="6.167322043"><ele>537</ele><time>-0-0T0:0:0Z</time></trkpt>
<trkpt lat="46.401517075" lon="6.167322043"><ele>537</ele><time>-0-0T0:0:0Z</time></trkpt>
<trkpt lat="46.401572227" lon="6.167235373999999"><ele>537</ele><time>-0-0T0:0:0Z</time></trkpt>
<trkpt lat="46.40165805800001" lon="6.167085171"><ele>537</ele><time>-0-0T0:0:0Z</time></trkpt>
<trkpt lat="46.40172243100001" lon="6.166870593999999"><ele>537</ele><time>-0-0T0:0:0Z</time></trkpt>
<trkpt lat="46.401786804" lon="6.166656017000001"><ele>537</ele><time>-0-0T0:0:0Z</time></trkpt>
<trkpt lat="46.40182972" lon="6.166484356"><ele>537</ele><time>-0-0T0:0:0Z</time></trkpt>
<trkpt lat="46.40182972" lon="6.166334151999999"><ele>538</ele><time>-0-0T0:0:0Z</time></trkpt>
<trkpt lat="46.401786804" lon="6.166205406000001"><ele>538</ele><time>-0-0T0:0:0Z</time></trkpt>
<trkpt lat="46.401743889" lon="6.165990829"><ele>538</ele><time>-0-0T0:0:0Z</time></trkpt>
<trkpt lat="46.401679516" lon="6.165733336999999"><ele>538</ele><time>-0-0T0:0:0Z</time></trkpt>
<trkpt lat="46.4016366" lon="6.165475845"><ele>539</ele><time>-0-0T0:0:0Z</time></trkpt>
<trkpt lat="46.401615143" lon="6.165325641999999"><ele>540</ele><time>-0-0T0:0:0Z</time></trkpt>
<trkpt lat="46.401379108" lon="6.165046692"><ele>540</ele><time>-0-0T0:0:0Z</time></trkpt>
<trkpt lat="46.401332924" lon="6.165004781999999"><ele>540</ele><time>-0-0T0:0:0Z</time></trkpt>
<trkpt lat="46.40133284000001" lon="6.165004699"><ele>540</ele><time>-0-0T0:0:0Z</time></trkpt>
<trkpt lat="46.401332924" lon="6.165004781999999"><ele>540</ele><time>-0-0T0:0:0Z</time></trkpt>
<trkpt lat="46.40114307399999" lon="6.164832114999999"><ele>540</ele><time>-0-0T0:0:0Z</time></trkpt>
<trkpt lat="46.400692463" lon="6.164445877"><ele>540</ele><time>-0-0T0:0:0Z</time></trkpt>
<trkpt lat="46.400198936" lon="6.164038181"><ele>540</ele><time>-0-0T0:0:0Z</time></trkpt>
<trkpt lat="46.39998435999999" lon="6.163823605"><ele>541</ele><time>-0-0T0:0:0Z</time></trkpt>
<trkpt lat="46.399812698" lon="6.163630486"><ele>541</ele><time>-0-0T0:0:0Z</time></trkpt>
<trkpt lat="46.39961957900001" lon="6.163437366"><ele>541</ele><time>-0-0T0:0:0Z</time></trkpt>
<trkpt lat="46.39949083299999" lon="6.163244247"><ele>541</ele><time>-0-0T0:0:0Z</time></trkpt>
<trkpt lat="46.39936208699999" lon="6.163029671"><ele>541</ele><time>-0-0T0:0:0Z</time></trkpt>
<trkpt lat="46.399126053" lon="6.16257906"><ele>541</ele><time>-0-0T0:0:0Z</time></trkpt>
<trkpt lat="46.398932934" lon="6.162192822000001"><ele>543</ele><time>-0-0T0:0:0Z</time></trkpt>
<trkpt lat="46.398653984" lon="6.161699295"><ele>543</ele><time>-0-0T0:0:0Z</time></trkpt>
<trkpt lat="46.398353577" lon="6.161205769"><ele>543</ele><time>-0-0T0:0:0Z</time></trkpt>
<trkpt lat="46.398267746" lon="6.161077023"><ele>543</ele><time>-0-0T0:0:0Z</time></trkpt>
<trkpt lat="46.39794588099999" lon="6.160604954000001"><ele>543</ele><time>-0-0T0:0:0Z</time></trkpt>
<trkpt lat="46.397645473" lon="6.160132885"><ele>542</ele><time>-0-0T0:0:0Z</time></trkpt>
<trkpt lat="46.39723568200001" lon="6.159524778"><ele>541</ele><time>-0-0T0:0:0Z</time></trkpt>
<trkpt lat="46.39723568200001" lon="6.159524778"><ele>541</ele><time>-0-0T0:0:0Z</time></trkpt>
<trkpt lat="46.39723568200001" lon="6.159524778"><ele>541</ele><time>-0-0T0:0:0Z</time></trkpt>
<trkpt lat="46.39698028599999" lon="6.159145831999999"><ele>541</ele><time>-0-0T0:0:0Z</time></trkpt>
<trkpt lat="46.39719486199999" lon="6.15888834"><ele>542</ele><time>-0-0T0:0:0Z</time></trkpt>
<trkpt lat="46.397283878" lon="6.158776945"><ele>542</ele><time>-0-0T0:0:0Z</time></trkpt>
<trkpt lat="46.397283794" lon="6.158777111999999"><ele>542</ele><time>-0-0T0:0:0Z</time></trkpt>
<trkpt lat="46.397283878" lon="6.158776945"><ele>542</ele><time>-0-0T0:0:0Z</time></trkpt>
<trkpt lat="46.397538185" lon="6.158459186999999"><ele>543</ele><time>-0-0T0:0:0Z</time></trkpt>
<trkpt lat="46.398246288" lon="6.15760088"><ele>543</ele><time>-0-0T0:0:0Z</time></trkpt>
<trkpt lat="46.39840118599999" lon="6.157414969"><ele>544</ele><time>-0-0T0:0:0Z</time></trkpt>
<trkpt lat="46.398401018" lon="6.157415052999999"><ele>544</ele><time>-0-0T0:0:0Z</time></trkpt>
<trkpt lat="46.39840118599999" lon="6.157414969"><ele>544</ele><time>-0-0T0:0:0Z</time></trkpt>
<trkpt lat="46.398460865" lon="6.157343388"><ele>544</ele><time>-0-0T0:0:0Z</time></trkpt>
<trkpt lat="46.398525238" lon="6.157214642"><ele>546</ele><time>-0-0T0:0:0Z</time></trkpt>
<trkpt lat="46.398525238" lon="6.15704298"><ele>548</ele><time>-0-0T0:0:0Z</time></trkpt>
<trkpt lat="46.39843940700001" lon="6.156871319"><ele>546</ele><time>-0-0T0:0:0Z</time></trkpt>
<trkpt lat="46.398246288" lon="6.156527996"><ele>543</ele><time>-0-0T0:0:0Z</time></trkpt>
<trkpt lat="46.39798552700001" lon="6.156110661"><ele>542</ele><time>-0-0T0:0:0Z</time></trkpt>
<trkpt lat="46.397985611" lon="6.156110912999999"><ele>542</ele><time>-0-0T0:0:0Z</time></trkpt>
<trkpt lat="46.39798552700001" lon="6.156110661"><ele>542</ele><time>-0-0T0:0:0Z</time></trkpt>
<trkpt lat="46.397924423" lon="6.156013012"><ele>543</ele><time>-0-0T0:0:0Z</time></trkpt>
<trkpt lat="46.39685153999999" lon="6.154210567"><ele>547</ele><time>-0-0T0:0:0Z</time></trkpt>
<trkpt lat="46.396465302" lon="6.153588294999999"><ele>543</ele><time>-0-0T0:0:0Z</time></trkpt>
<trkpt lat="46.39564991" lon="6.152236462000001"><ele>544</ele><time>-0-0T0:0:0Z</time></trkpt>
<trkpt lat="46.395489983" lon="6.151944855"><ele>545</ele><time>-0-0T0:0:0Z</time></trkpt>
<trkpt lat="46.395490067" lon="6.151944939"><ele>545</ele><time>-0-0T0:0:0Z</time></trkpt>
<trkpt lat="46.395489983" lon="6.151944855"><ele>545</ele><time>-0-0T0:0:0Z</time></trkpt>
<trkpt lat="46.39528513" lon="6.151571274"><ele>546</ele><time>-0-0T0:0:0Z</time></trkpt>
<trkpt lat="46.395123443" lon="6.151371365"><ele>546</ele><time>-0-0T0:0:0Z</time></trkpt>
<trkpt lat="46.39512352599999" lon="6.151371617"><ele>546</ele><time>-0-0T0:0:0Z</time></trkpt>
<trkpt lat="46.395123443" lon="6.151371365"><ele>546</ele><time>-0-0T0:0:0Z</time></trkpt>
<trkpt lat="46.394920349" lon="6.151120663"><ele>545</ele><time>-0-0T0:0:0Z</time></trkpt>
<trkpt lat="46.394405365" lon="6.150476933"><ele>545</ele><time>-0-0T0:0:0Z</time></trkpt>
<trkpt lat="46.39380455" lon="6.149704456"><ele>544</ele><time>-0-0T0:0:0Z</time></trkpt>
<trkpt lat="46.393289566" lon="6.149082184"><ele>544</ele><time>-0-0T0:0:0Z</time></trkpt>
<trkpt lat="46.39313936200001" lon="6.148889065"><ele>543</ele><time>-0-0T0:0:0Z</time></trkpt>
<trkpt lat="46.39316082" lon="6.148889065"><ele>543</ele><time>-0-0T0:0:0Z</time></trkpt>
<trkpt lat="46.39313936200001" lon="6.148889065"><ele>543</ele><time>-0-0T0:0:0Z</time></trkpt>
<trkpt lat="46.393461227" lon="6.148374081"><ele>544</ele><time>-0-0T0:0:0Z</time></trkpt>
<trkpt lat="46.393577233" lon="6.148183057"><ele>545</ele><time>-0-0T0:0:0Z</time></trkpt>
<trkpt lat="46.393577317" lon="6.148182973000001"><ele>545</ele><time>-0-0T0:0:0Z</time></trkpt>
<trkpt lat="46.393577233" lon="6.148183057"><ele>545</ele><time>-0-0T0:0:0Z</time></trkpt>
<trkpt lat="46.39382600800001" lon="6.147773266000001"><ele>548</ele><time>-0-0T0:0:0Z</time></trkpt>
<trkpt lat="46.394233704" lon="6.147108078"><ele>552</ele><time>-0-0T0:0:0Z</time></trkpt>
<trkpt lat="46.394662857" lon="6.146399974999999"><ele>557</ele><time>-0-0T0:0:0Z</time></trkpt>
<trkpt lat="46.39466813799999" lon="6.146391174000001"><ele>557</ele><time>-0-0T0:0:0Z</time></trkpt>
<trkpt lat="46.39466813799999" lon="6.146391006"><ele>557</ele><time>-0-0T0:0:0Z</time></trkpt>
<trkpt lat="46.39466813799999" lon="6.146391174000001"><ele>557</ele><time>-0-0T0:0:0Z</time></trkpt>
<trkpt lat="46.394941807" lon="6.145927906"><ele>562</ele><time>-0-0T0:0:0Z</time></trkpt>
<trkpt lat="46.395027637" lon="6.145970821"><ele>562</ele><time>-0-0T0:0:0Z</time></trkpt>
<trkpt lat="46.395156384" lon="6.14607811"><ele>561</ele><time>-0-0T0:0:0Z</time></trkpt>
<trkpt lat="46.39500618" lon="6.145842075"><ele>564</ele><time>-0-0T0:0:0Z</time></trkpt>
<trkpt lat="46.395027637" lon="6.145756245"><ele>566</ele><time>-0-0T0:0:0Z</time></trkpt>
<trkpt lat="46.39509200999999" lon="6.145563126"><ele>568</ele><time>-0-0T0:0:0Z</time></trkpt>
<trkpt lat="46.39509200999999" lon="6.145563126"><ele>568</ele><time>-0-0T0:0:0Z</time></trkpt>
<trkpt lat="46.39509200999999" lon="6.145563126"><ele>568</ele><time>-0-0T0:0:0Z</time></trkpt>
<trkpt lat="46.395263672" lon="6.145541668000001"><ele>570</ele><time>-0-0T0:0:0Z</time></trkpt>
<trkpt lat="46.395349503" lon="6.145541668000001"><ele>571</ele><time>-0-0T0:0:0Z</time></trkpt>
<trkpt lat="46.395671368" lon="6.145541668000001"><ele>573</ele><time>-0-0T0:0:0Z</time></trkpt>
<trkpt lat="46.395735741" lon="6.145541668000001"><ele>574</ele><time>-0-0T0:0:0Z</time></trkpt>
<trkpt lat="46.39599323300001" lon="6.145563126"><ele>575</ele><time>-0-0T0:0:0Z</time></trkpt>
<trkpt lat="46.39633655500001" lon="6.145584582999999"><ele>578</ele><time>-0-0T0:0:0Z</time></trkpt>
<trkpt lat="46.396615505" lon="6.145584582999999"><ele>580</ele><time>-0-0T0:0:0Z</time></trkpt>
<trkpt lat="46.396830082" lon="6.145584582999999"><ele>582</ele><time>-0-0T0:0:0Z</time></trkpt>
<trkpt lat="46.396853384" lon="6.145581566"><ele>583</ele><time>-0-0T0:0:0Z</time></trkpt>
<trkpt lat="46.39685346699999" lon="6.145581566"><ele>583</ele><time>-0-0T0:0:0Z</time></trkpt>
<trkpt lat="46.396853384" lon="6.145581566"><ele>583</ele><time>-0-0T0:0:0Z</time></trkpt>
<trkpt lat="46.39715194700001" lon="6.145541668000001"><ele>584</ele><time>-0-0T0:0:0Z</time></trkpt>
<trkpt lat="46.39777422" lon="6.14543438"><ele>588</ele><time>-0-0T0:0:0Z</time></trkpt>
<trkpt lat="46.39803171200001" lon="6.145391464"><ele>588</ele><time>-0-0T0:0:0Z</time></trkpt>
<trkpt lat="46.398224831" lon="6.145370007000001"><ele>589</ele><time>-0-0T0:0:0Z</time></trkpt>
<trkpt lat="46.398460865" lon="6.145348549"><ele>590</ele><time>-0-0T0:0:0Z</time></trkpt>
<trkpt lat="46.398577206" lon="6.145348549"><ele>590</ele><time>-0-0T0:0:0Z</time></trkpt>
<trkpt lat="46.398577206" lon="6.145348549"><ele>590</ele><time>-0-0T0:0:0Z</time></trkpt>
<trkpt lat="46.398577206" lon="6.145348549"><ele>590</ele><time>-0-0T0:0:0Z</time></trkpt>
<trkpt lat="46.398611069" lon="6.145348549"><ele>590</ele><time>-0-0T0:0:0Z</time></trkpt>
<trkpt lat="46.398868561" lon="6.145412922000001"><ele>590</ele><time>-0-0T0:0:0Z</time></trkpt>
<trkpt lat="46.398932934" lon="6.145327091000001"><ele>592</ele><time>-0-0T0:0:0Z</time></trkpt>
<trkpt lat="46.398975849" lon="6.145241261"><ele>593</ele><time>-0-0T0:0:0Z</time></trkpt>
<trkpt lat="46.398997307" lon="6.145176887999999"><ele>595</ele><time>-0-0T0:0:0Z</time></trkpt>
<trkpt lat="46.398997307" lon="6.145133972000001"><ele>597</ele><time>-0-0T0:0:0Z</time></trkpt>
<trkpt lat="46.398890018" lon="6.14487648"><ele>603</ele><time>-0-0T0:0:0Z</time></trkpt>
<trkpt lat="46.398863699" lon="6.144820238"><ele>604</ele><time>-0-0T0:0:0Z</time></trkpt>
<trkpt lat="46.398863615" lon="6.144820154"><ele>604</ele><time>-0-0T0:0:0Z</time></trkpt>
<trkpt lat="46.398863699" lon="6.144820238"><ele>604</ele><time>-0-0T0:0:0Z</time></trkpt>
<trkpt lat="46.398568153" lon="6.144189835"><ele>606</ele><time>-0-0T0:0:0Z</time></trkpt>
<trkpt lat="46.39833211900001" lon="6.143631934999999"><ele>608</ele><time>-0-0T0:0:0Z</time></trkpt>
<trkpt lat="46.39794588099999" lon="6.142795086"><ele>611</ele><time>-0-0T0:0:0Z</time></trkpt>
<trkpt lat="46.397559643" lon="6.141936779"><ele>613</ele><time>-0-0T0:0:0Z</time></trkpt>
<trkpt lat="46.39738798099999" lon="6.141614914"><ele>619</ele><time>-0-0T0:0:0Z</time></trkpt>
<trkpt lat="46.39738798099999" lon="6.141614914"><ele>619</ele><time>-0-0T0:0:0Z</time></trkpt>
<trkpt lat="46.39738798099999" lon="6.141614914"><ele>619</ele><time>-0-0T0:0:0Z</time></trkpt>
<trkpt lat="46.39725923499999" lon="6.141314507"><ele>619</ele><time>-0-0T0:0:0Z</time></trkpt>
<trkpt lat="46.39710903200001" lon="6.140992641"><ele>624</ele><time>-0-0T0:0:0Z</time></trkpt>
<trkpt lat="46.397031164" lon="6.140849898"><ele>626</ele><time>-0-0T0:0:0Z</time></trkpt>
<trkpt lat="46.39703107999999" lon="6.140849646"><ele>626</ele><time>-0-0T0:0:0Z</time></trkpt>
<trkpt lat="46.397031164" lon="6.140849898"><ele>626</ele><time>-0-0T0:0:0Z</time></trkpt>
<trkpt lat="46.39698028599999" lon="6.140756607"><ele>625</ele><time>-0-0T0:0:0Z</time></trkpt>
<trkpt lat="46.39678716699999" lon="6.140370369"><ele>625</ele><time>-0-0T0:0:0Z</time></trkpt>
<trkpt lat="46.39672279399999" lon="6.140220165000001"><ele>625</ele><time>-0-0T0:0:0Z</time></trkpt>
<trkpt lat="46.396679878" lon="6.140112877"><ele>624</ele><time>-0-0T0:0:0Z</time></trkpt>
<trkpt lat="46.396636963" lon="6.139984131"><ele>625</ele><time>-0-0T0:0:0Z</time></trkpt>
<trkpt lat="46.396615505" lon="6.139898300000001"><ele>626</ele><time>-0-0T0:0:0Z</time></trkpt>
<trkpt lat="46.396594048" lon="6.139833927"><ele>627</ele><time>-0-0T0:0:0Z</time></trkpt>
<trkpt lat="46.396551132" lon="6.13961935"><ele>630</ele><time>-0-0T0:0:0Z</time></trkpt>
<trkpt lat="46.396538392" lon="6.139547182"><ele>631</ele><time>-0-0T0:0:0Z</time></trkpt>
<trkpt lat="46.396538392" lon="6.139547098"><ele>631</ele><time>-0-0T0:0:0Z</time></trkpt>
<trkpt lat="46.396538392" lon="6.139547182"><ele>631</ele><time>-0-0T0:0:0Z</time></trkpt>
<trkpt lat="46.396486759" lon="6.13925457"><ele>633</ele><time>-0-0T0:0:0Z</time></trkpt>
<trkpt lat="46.396379471" lon="6.138739586"><ele>636</ele><time>-0-0T0:0:0Z</time></trkpt>
<trkpt lat="46.396315098" lon="6.138589382000001"><ele>637</ele><time>-0-0T0:0:0Z</time></trkpt>
<trkpt lat="46.396272182" lon="6.138439177999999"><ele>638</ele><time>-0-0T0:0:0Z</time></trkpt>
<trkpt lat="46.396121979" lon="6.138160229"><ele>639</ele><time>-0-0T0:0:0Z</time></trkpt>
<trkpt lat="46.396033047" lon="6.137967529"><ele>640</ele><time>-0-0T0:0:0Z</time></trkpt>
<trkpt lat="46.396033047" lon="6.137967529"><ele>640</ele><time>-0-0T0:0:0Z</time></trkpt>
<trkpt lat="46.396033047" lon="6.137967529"><ele>640</ele><time>-0-0T0:0:0Z</time></trkpt>
<trkpt lat="46.39599323300001" lon="6.137881279"><ele>640</ele><time>-0-0T0:0:0Z</time></trkpt>
<trkpt lat="46.395885944" lon="6.13768816"><ele>641</ele><time>-0-0T0:0:0Z</time></trkpt>
<trkpt lat="46.39599323300001" lon="6.137623786999999"><ele>643</ele><time>-0-0T0:0:0Z</time></trkpt>
<trkpt lat="46.396057606" lon="6.137559414"><ele>645</ele><time>-0-0T0:0:0Z</time></trkpt>
<trkpt lat="46.396121979" lon="6.137452126000001"><ele>646</ele><time>-0-0T0:0:0Z</time></trkpt>
<trkpt lat="46.396171683" lon="6.137286415"><ele>648</ele><time>-0-0T0:0:0Z</time></trkpt>
<trkpt lat="46.396171683" lon="6.137286248000001"><ele>648</ele><time>-0-0T0:0:0Z</time></trkpt>
<trkpt lat="46.396171683" lon="6.137286415"><ele>648</ele><time>-0-0T0:0:0Z</time></trkpt>
<trkpt lat="46.396186352" lon="6.137237549"><ele>648</ele><time>-0-0T0:0:0Z</time></trkpt>
<trkpt lat="46.396229267" lon="6.137044430000001"><ele>650</ele><time>-0-0T0:0:0Z</time></trkpt>
<trkpt lat="46.396272182" lon="6.136851310999999"><ele>652</ele><time>-0-0T0:0:0Z</time></trkpt>
<trkpt lat="46.39633655500001" lon="6.136572360999999"><ele>654</ele><time>-0-0T0:0:0Z</time></trkpt>
<trkpt lat="46.396422386" lon="6.136701107"><ele>654</ele><time>-0-0T0:0:0Z</time></trkpt>
<trkpt lat="46.396443844" lon="6.136726839"><ele>654</ele><time>-0-0T0:0:0Z</time></trkpt>
<trkpt lat="46.396443844" lon="6.136726839"><ele>654</ele><time>-0-0T0:0:0Z</time></trkpt>
<trkpt lat="46.396443844" lon="6.136726839"><ele>654</ele><time>-0-0T0:0:0Z</time></trkpt>
<trkpt lat="46.396636963" lon="6.136958599"><ele>655</ele><time>-0-0T0:0:0Z</time></trkpt>
<trkpt lat="46.397173405" lon="6.137537956000001"><ele>658</ele><time>-0-0T0:0:0Z</time></trkpt>
<trkpt lat="46.39749527" lon="6.137902737000001"><ele>660</ele><time>-0-0T0:0:0Z</time></trkpt>
<trkpt lat="46.397791486" lon="6.138255447"><ele>659</ele><time>-0-0T0:0:0Z</time></trkpt>
<trkpt lat="46.397791402" lon="6.138255363000001"><ele>659</ele><time>-0-0T0:0:0Z</time></trkpt>
<trkpt lat="46.397791486" lon="6.138255447"><ele>659</ele><time>-0-0T0:0:0Z</time></trkpt>
<trkpt lat="46.39794588099999" lon="6.138439177999999"><ele>660</ele><time>-0-0T0:0:0Z</time></trkpt>
<trkpt lat="46.398228016" lon="6.138756685"><ele>664</ele><time>-0-0T0:0:0Z</time></trkpt>
<trkpt lat="46.398227932" lon="6.138756517000001"><ele>664</ele><time>-0-0T0:0:0Z</time></trkpt>
<trkpt lat="46.398228016" lon="6.138756685"><ele>664</ele><time>-0-0T0:0:0Z</time></trkpt>
<trkpt lat="46.398804188" lon="6.139404774000001"><ele>661</ele><time>-0-0T0:0:0Z</time></trkpt>
<trkpt lat="46.399683952" lon="6.140477657"><ele>652</ele><time>-0-0T0:0:0Z</time></trkpt>
<trkpt lat="46.399962902" lon="6.140778065"><ele>648</ele><time>-0-0T0:0:0Z</time></trkpt>
<trkpt lat="46.400069604" lon="6.140896669"><ele>644</ele><time>-0-0T0:0:0Z</time></trkpt>
<trkpt lat="46.40006952" lon="6.140896501"><ele>644</ele><time>-0-0T0:0:0Z</time></trkpt>
<trkpt lat="46.400069604" lon="6.140896669"><ele>644</ele><time>-0-0T0:0:0Z</time></trkpt>
<trkpt lat="46.400156021" lon="6.140992641"><ele>642</ele><time>-0-0T0:0:0Z</time></trkpt>
<trkpt lat="46.40034914" lon="6.14118576"><ele>642</ele><time>-0-0T0:0:0Z</time></trkpt>
<trkpt lat="46.400327682" lon="6.141121387"><ele>642</ele><time>-0-0T0:0:0Z</time></trkpt>
<trkpt lat="46.400284767" lon="6.141035557"><ele>643</ele><time>-0-0T0:0:0Z</time></trkpt>
<trkpt lat="46.40024185199999" lon="6.140928268"><ele>644</ele><time>-0-0T0:0:0Z</time></trkpt>
<trkpt lat="46.400220394" lon="6.14082098"><ele>645</ele><time>-0-0T0:0:0Z</time></trkpt>
<trkpt lat="46.400198936" lon="6.140670776"><ele>649</ele><time>-0-0T0:0:0Z</time></trkpt>
<trkpt lat="46.400198936" lon="6.140413284"><ele>649</ele><time>-0-0T0:0:0Z</time></trkpt>
<trkpt lat="46.400198936" lon="6.140336925"><ele>650</ele><time>-0-0T0:0:0Z</time></trkpt>
<trkpt lat="46.400198936" lon="6.140337093"><ele>650</ele><time>-0-0T0:0:0Z</time></trkpt>
<trkpt lat="46.400198936" lon="6.140336925"><ele>650</ele><time>-0-0T0:0:0Z</time></trkpt>
<trkpt lat="46.400198936" lon="6.140069962"><ele>653</ele><time>-0-0T0:0:0Z</time></trkpt>
<trkpt lat="46.400198936" lon="6.139769554000001"><ele>653</ele><time>-0-0T0:0:0Z</time></trkpt>
<trkpt lat="46.400156021" lon="6.139469147"><ele>656</ele><time>-0-0T0:0:0Z</time></trkpt>
<trkpt lat="46.400091648" lon="6.139340401"><ele>658</ele><time>-0-0T0:0:0Z</time></trkpt>
<trkpt lat="46.40004873299999" lon="6.139233112"><ele>660</ele><time>-0-0T0:0:0Z</time></trkpt>
<trkpt lat="46.399812698" lon="6.138868332"><ele>662</ele><time>-0-0T0:0:0Z</time></trkpt>
<trkpt lat="46.399705661" lon="6.138707735"><ele>665</ele><time>-0-0T0:0:0Z</time></trkpt>
<trkpt lat="46.39970574500001" lon="6.138707818"><ele>665</ele><time>-0-0T0:0:0Z</time></trkpt>
<trkpt lat="46.399705661" lon="6.138707735"><ele>665</ele><time>-0-0T0:0:0Z</time></trkpt>
<trkpt lat="46.399598122" lon="6.138546467000001"><ele>667</ele><time>-0-0T0:0:0Z</time></trkpt>
<trkpt lat="46.399533749" lon="6.138439177999999"><ele>667</ele><time>-0-0T0:0:0Z</time></trkpt>
<trkpt lat="46.399812698" lon="6.138374805"><ele>673</ele><time>-0-0T0:0:0Z</time></trkpt>
<trkpt lat="46.399898948" lon="6.138355527"><ele>677</ele><time>-0-0T0:0:0Z</time></trkpt>
<trkpt lat="46.39989886400001" lon="6.138355527"><ele>677</ele><time>-0-0T0:0:0Z</time></trkpt>
<trkpt lat="46.399898948" lon="6.138355527"><ele>677</ele><time>-0-0T0:0:0Z</time></trkpt>
<trkpt lat="46.400005817" lon="6.13833189"><ele>680</ele><time>-0-0T0:0:0Z</time></trkpt>
<trkpt lat="46.400327682" lon="6.138310432000001"><ele>683</ele><time>-0-0T0:0:0Z</time></trkpt>
<trkpt lat="46.400392056" lon="6.13833189"><ele>682</ele><time>-0-0T0:0:0Z</time></trkpt>
<trkpt lat="46.40049934400001" lon="6.138374805"><ele>682</ele><time>-0-0T0:0:0Z</time></trkpt>
<trkpt lat="46.400649548" lon="6.138525009"><ele>681</ele><time>-0-0T0:0:0Z</time></trkpt>
<trkpt lat="46.400756836" lon="6.13861084"><ele>682</ele><time>-0-0T0:0:0Z</time></trkpt>
<trkpt lat="46.400821209" lon="6.138632298000001"><ele>683</ele><time>-0-0T0:0:0Z</time></trkpt>
<trkpt lat="46.400842667" lon="6.138632298000001"><ele>684</ele><time>-0-0T0:0:0Z</time></trkpt>
<trkpt lat="46.401014328" lon="6.138589382000001"><ele>685</ele><time>-0-0T0:0:0Z</time></trkpt>
<trkpt lat="46.40103478" lon="6.138583096000001"><ele>685</ele><time>-0-0T0:0:0Z</time></trkpt>
<trkpt lat="46.401034696" lon="6.138583096000001"><ele>685</ele><time>-0-0T0:0:0Z</time></trkpt>
<trkpt lat="46.40103478" lon="6.138583096000001"><ele>685</ele><time>-0-0T0:0:0Z</time></trkpt>
<trkpt lat="46.401228905" lon="6.138525009"><ele>687</ele><time>-0-0T0:0:0Z</time></trkpt>
<trkpt lat="46.401293278" lon="6.138503551000001"><ele>689</ele><time>-0-0T0:0:0Z</time></trkpt>
<trkpt lat="46.401357651" lon="6.138546467000001"><ele>689</ele><time>-0-0T0:0:0Z</time></trkpt>
<trkpt lat="46.401422024" lon="6.138653755"><ele>689</ele><time>-0-0T0:0:0Z</time></trkpt>
<trkpt lat="46.40152931199999" lon="6.138825417"><ele>688</ele><time>-0-0T0:0:0Z</time></trkpt>
<trkpt lat="46.401615143" lon="6.138932705"><ele>688</ele><time>-0-0T0:0:0Z</time></trkpt>
<trkpt lat="46.401679516" lon="6.13897562"><ele>688</ele><time>-0-0T0:0:0Z</time></trkpt>
<trkpt lat="46.401765347" lon="6.138997078000001"><ele>689</ele><time>-0-0T0:0:0Z</time></trkpt>
<trkpt lat="46.401784206" lon="6.138997078000001"><ele>689</ele><time>-0-0T0:0:0Z</time></trkpt>
<trkpt lat="46.401784206" lon="6.138997078000001"><ele>689</ele><time>-0-0T0:0:0Z</time></trkpt>
<trkpt lat="46.401784206" lon="6.138997078000001"><ele>689</ele><time>-0-0T0:0:0Z</time></trkpt>
<trkpt lat="46.401872635" lon="6.138997078000001"><ele>691</ele><time>-0-0T0:0:0Z</time></trkpt>
<trkpt lat="46.401958466" lon="6.138954163000001"><ele>694</ele><time>-0-0T0:0:0Z</time></trkpt>
<trkpt lat="46.40202283899999" lon="6.138868332"><ele>696</ele><time>-0-0T0:0:0Z</time></trkpt>
<trkpt lat="46.402108669" lon="6.138696671"><ele>700</ele><time>-0-0T0:0:0Z</time></trkpt>
<trkpt lat="46.40221595799999" lon="6.138417721"><ele>704</ele><time>-0-0T0:0:0Z</time></trkpt>
<trkpt lat="46.40228033099999" lon="6.138310432000001"><ele>705</ele><time>-0-0T0:0:0Z</time></trkpt>
<trkpt lat="46.402323246" lon="6.138267517000001"><ele>706</ele><time>-0-0T0:0:0Z</time></trkpt>
<trkpt lat="46.402366161" lon="6.138267517000001"><ele>705</ele><time>-0-0T0:0:0Z</time></trkpt>
<trkpt lat="46.40240907700001" lon="6.138267517000001"><ele>706</ele><time>-0-0T0:0:0Z</time></trkpt>
<trkpt lat="46.402451992" lon="6.13833189"><ele>705</ele><time>-0-0T0:0:0Z</time></trkpt>
<trkpt lat="46.402516365" lon="6.138439177999999"><ele>706</ele><time>-0-0T0:0:0Z</time></trkpt>
<trkpt lat="46.402602196" lon="6.138675213000001"><ele>707</ele><time>-0-0T0:0:0Z</time></trkpt>
<trkpt lat="46.402709484" lon="6.138868332"><ele>708</ele><time>-0-0T0:0:0Z</time></trkpt>
<trkpt lat="46.402768577" lon="6.139006213999999"><ele>708</ele><time>-0-0T0:0:0Z</time></trkpt>
<trkpt lat="46.40276849300001" lon="6.139006047"><ele>708</ele><time>-0-0T0:0:0Z</time></trkpt>
<trkpt lat="46.402768577" lon="6.139006213999999"><ele>708</ele><time>-0-0T0:0:0Z</time></trkpt>
<trkpt lat="46.402773857" lon="6.139018536"><ele>708</ele><time>-0-0T0:0:0Z</time></trkpt>
<trkpt lat="46.40281677200001" lon="6.139082909000001"><ele>708</ele><time>-0-0T0:0:0Z</time></trkpt>
<trkpt lat="46.40288114500001" lon="6.139104366"><ele>708</ele><time>-0-0T0:0:0Z</time></trkpt>
<trkpt lat="46.40294551800001" lon="6.139104366"><ele>710</ele><time>-0-0T0:0:0Z</time></trkpt>
<trkpt lat="46.403009892" lon="6.139082909000001"><ele>711</ele><time>-0-0T0:0:0Z</time></trkpt>
<trkpt lat="46.403031349" lon="6.139039993000001"><ele>712</ele><time>-0-0T0:0:0Z</time></trkpt>
<trkpt lat="46.403181553" lon="6.138803958999999"><ele>717</ele><time>-0-0T0:0:0Z</time></trkpt>
<trkpt lat="46.403331757" lon="6.138525009"><ele>722</ele><time>-0-0T0:0:0Z</time></trkpt>
<trkpt lat="46.40337467199999" lon="6.138460636"><ele>723</ele><time>-0-0T0:0:0Z</time></trkpt>
<trkpt lat="46.403417587" lon="6.138439177999999"><ele>723</ele><time>-0-0T0:0:0Z</time></trkpt>
<trkpt lat="46.403524876" lon="6.138417721"><ele>723</ele><time>-0-0T0:0:0Z</time></trkpt>
<trkpt lat="46.403591344" lon="6.138395425"><ele>723</ele><time>-0-0T0:0:0Z</time></trkpt>
<trkpt lat="46.40359126" lon="6.138395509"><ele>723</ele><time>-0-0T0:0:0Z</time></trkpt>
<trkpt lat="46.403591344" lon="6.138395425"><ele>723</ele><time>-0-0T0:0:0Z</time></trkpt>
<trkpt lat="46.403782368" lon="6.13833189"><ele>724</ele><time>-0-0T0:0:0Z</time></trkpt>
<trkpt lat="46.404018402" lon="6.138224602000001"><ele>726</ele><time>-0-0T0:0:0Z</time></trkpt>
<trkpt lat="46.40412569" lon="6.138181686000001"><ele>726</ele><time>-0-0T0:0:0Z</time></trkpt>
<trkpt lat="46.404190063" lon="6.138181686000001"><ele>726</ele><time>-0-0T0:0:0Z</time></trkpt>
<trkpt lat="46.404254436" lon="6.138203144"><ele>726</ele><time>-0-0T0:0:0Z</time></trkpt>
<trkpt lat="46.404361725" lon="6.138224602000001"><ele>726</ele><time>-0-0T0:0:0Z</time></trkpt>
<trkpt lat="46.40440464" lon="6.138246059"><ele>725</ele><time>-0-0T0:0:0Z</time></trkpt>
<trkpt lat="46.404469013" lon="6.138203144"><ele>726</ele><time>-0-0T0:0:0Z</time></trkpt>
<trkpt lat="46.404499272" lon="6.138172802"><ele>727</ele><time>-0-0T0:0:0Z</time></trkpt>
<trkpt lat="46.404499104" lon="6.138172969"><ele>727</ele><time>-0-0T0:0:0Z</time></trkpt>
<trkpt lat="46.404499272" lon="6.138172802"><ele>727</ele><time>-0-0T0:0:0Z</time></trkpt>
<trkpt lat="46.40453338599999" lon="6.138138771000001"><ele>728</ele><time>-0-0T0:0:0Z</time></trkpt>
<trkpt lat="46.40466213199999" lon="6.137988566999999"><ele>731</ele><time>-0-0T0:0:0Z</time></trkpt>
<trkpt lat="46.40479087799999" lon="6.137859821000001"><ele>735</ele><time>-0-0T0:0:0Z</time></trkpt>
<trkpt lat="46.40491962400001" lon="6.137752532999999"><ele>737</ele><time>-0-0T0:0:0Z</time></trkpt>
<trkpt lat="46.405005455" lon="6.137709617999999"><ele>737</ele><time>-0-0T0:0:0Z</time></trkpt>
<trkpt lat="46.405069828" lon="6.137709617999999"><ele>737</ele><time>-0-0T0:0:0Z</time></trkpt>
<trkpt lat="46.405112743" lon="6.137731075"><ele>737</ele><time>-0-0T0:0:0Z</time></trkpt>
<trkpt lat="46.405177116" lon="6.137838364"><ele>735</ele><time>-0-0T0:0:0Z</time></trkpt>
<trkpt lat="46.405262947" lon="6.138095856"><ele>732</ele><time>-0-0T0:0:0Z</time></trkpt>
<trkpt lat="46.405305862" lon="6.138181686000001"><ele>733</ele><time>-0-0T0:0:0Z</time></trkpt>
<trkpt lat="46.405391693" lon="6.138246059"><ele>734</ele><time>-0-0T0:0:0Z</time></trkpt>
<trkpt lat="46.405498981" lon="6.138246059"><ele>736</ele><time>-0-0T0:0:0Z</time></trkpt>
<trkpt lat="46.405649185" lon="6.138160229"><ele>739</ele><time>-0-0T0:0:0Z</time></trkpt>
<trkpt lat="46.405767705" lon="6.138077164"><ele>740</ele><time>-0-0T0:0:0Z</time></trkpt>
<trkpt lat="46.405767621" lon="6.138077164"><ele>740</ele><time>-0-0T0:0:0Z</time></trkpt>
<trkpt lat="46.405767705" lon="6.138077164"><ele>740</ele><time>-0-0T0:0:0Z</time></trkpt>
<trkpt lat="46.40586376200001" lon="6.138010025"><ele>741</ele><time>-0-0T0:0:0Z</time></trkpt>
<trkpt lat="46.406099796" lon="6.137795448"><ele>744</ele><time>-0-0T0:0:0Z</time></trkpt>
<trkpt lat="46.40625" lon="6.137666701999999"><ele>747</ele><time>-0-0T0:0:0Z</time></trkpt>
<trkpt lat="46.406421661" lon="6.137495041000001"><ele>750</ele><time>-0-0T0:0:0Z</time></trkpt>
<trkpt lat="46.40661478" lon="6.137301921999999"><ele>755</ele><time>-0-0T0:0:0Z</time></trkpt>
<trkpt lat="46.40670061099999" lon="6.137216090999999"><ele>756</ele><time>-0-0T0:0:0Z</time></trkpt>
<trkpt lat="46.406743526" lon="6.137173175999999"><ele>756</ele><time>-0-0T0:0:0Z</time></trkpt>
<trkpt lat="46.406807899" lon="6.137173175999999"><ele>758</ele><time>-0-0T0:0:0Z</time></trkpt>
<trkpt lat="46.406872272" lon="6.137216090999999"><ele>759</ele><time>-0-0T0:0:0Z</time></trkpt>
<trkpt lat="46.40689373000001" lon="6.137259006999999"><ele>758</ele><time>-0-0T0:0:0Z</time></trkpt>
<trkpt lat="46.406936646" lon="6.137387752999999"><ele>757</ele><time>-0-0T0:0:0Z</time></trkpt>
<trkpt lat="46.40695810300001" lon="6.137495041000001"><ele>756</ele><time>-0-0T0:0:0Z</time></trkpt>
<trkpt lat="46.40696028199999" lon="6.137520857"><ele>755</ele><time>-0-0T0:0:0Z</time></trkpt>
<trkpt lat="46.40696028199999" lon="6.137520857"><ele>755</ele><time>-0-0T0:0:0Z</time></trkpt>
<trkpt lat="46.40696028199999" lon="6.137520857"><ele>755</ele><time>-0-0T0:0:0Z</time></trkpt>
<trkpt lat="46.406979561" lon="6.137752532999999"><ele>751</ele><time>-0-0T0:0:0Z</time></trkpt>
<trkpt lat="46.406979561" lon="6.138224602000001"><ele>750</ele><time>-0-0T0:0:0Z</time></trkpt>
<trkpt lat="46.407001019" lon="6.138396262999999"><ele>751</ele><time>-0-0T0:0:0Z</time></trkpt>
<trkpt lat="46.407043934" lon="6.138482093999999"><ele>753</ele><time>-0-0T0:0:0Z</time></trkpt>
<trkpt lat="46.407043934" lon="6.138546467000001"><ele>753</ele><time>-0-0T0:0:0Z</time></trkpt>
<trkpt lat="46.40702247600001" lon="6.138761044000001"><ele>753</ele><time>-0-0T0:0:0Z</time></trkpt>
<trkpt lat="46.40702247600001" lon="6.138821058"><ele>753</ele><time>-0-0T0:0:0Z</time></trkpt>
<trkpt lat="46.40702247600001" lon="6.138821058"><ele>753</ele><time>-0-0T0:0:0Z</time></trkpt>
<trkpt lat="46.40702247600001" lon="6.138821058"><ele>753</ele><time>-0-0T0:0:0Z</time></trkpt>
<trkpt lat="46.40702247600001" lon="6.138846874"><ele>753</ele><time>-0-0T0:0:0Z</time></trkpt>
<trkpt lat="46.407043934" lon="6.13897562"><ele>752</ele><time>-0-0T0:0:0Z</time></trkpt>
<trkpt lat="46.407108307" lon="6.139104366"><ele>750</ele><time>-0-0T0:0:0Z</time></trkpt>
<trkpt lat="46.40715122200001" lon="6.139211655"><ele>750</ele><time>-0-0T0:0:0Z</time></trkpt>
<trkpt lat="46.407108307" lon="6.139404774000001"><ele>756</ele><time>-0-0T0:0:0Z</time></trkpt>
<trkpt lat="46.40707737799999" lon="6.139559336"><ele>757</ele><time>-0-0T0:0:0Z</time></trkpt>
<trkpt lat="46.40711903600001" lon="6.139577105999999"><ele>756</ele><time>-0-0T0:0:0Z</time></trkpt>
<trkpt lat="46.40707737799999" lon="6.139559336"><ele>757</ele><time>-0-0T0:0:0Z</time></trkpt>
<trkpt lat="46.407065392" lon="6.13961935"><ele>756</ele><time>-0-0T0:0:0Z</time></trkpt>
<trkpt lat="46.407043934" lon="6.139833927"><ele>753</ele><time>-0-0T0:0:0Z</time></trkpt>
<trkpt lat="46.407043934" lon="6.139919758"><ele>752</ele><time>-0-0T0:0:0Z</time></trkpt>
<trkpt lat="46.407065392" lon="6.140134335000001"><ele>750</ele><time>-0-0T0:0:0Z</time></trkpt>
<trkpt lat="46.40708684900001" lon="6.140413284"><ele>746</ele><time>-0-0T0:0:0Z</time></trkpt>
<trkpt lat="46.40715122200001" lon="6.140713692"><ele>743</ele><time>-0-0T0:0:0Z</time></trkpt>
<trkpt lat="46.407215595" lon="6.140928268"><ele>740</ele><time>-0-0T0:0:0Z</time></trkpt>
<trkpt lat="46.407215595" lon="6.140928268"><ele>740</ele><time>-0-0T0:0:0Z</time></trkpt>
<trkpt lat="46.407215595" lon="6.140928268"><ele>740</ele><time>-0-0T0:0:0Z</time></trkpt>
<trkpt lat="46.407322884" lon="6.141207218"><ele>736</ele><time>-0-0T0:0:0Z</time></trkpt>
<trkpt lat="46.407430172" lon="6.141421795"><ele>733</ele><time>-0-0T0:0:0Z</time></trkpt>
<trkpt lat="46.407494545" lon="6.141614914"><ele>729</ele><time>-0-0T0:0:0Z</time></trkpt>
<trkpt lat="46.40753746" lon="6.141765118"><ele>727</ele><time>-0-0T0:0:0Z</time></trkpt>
<trkpt lat="46.407552799" lon="6.141826557"><ele>726</ele><time>-0-0T0:0:0Z</time></trkpt>
<trkpt lat="46.40755288299999" lon="6.141826808000001"><ele>726</ele><time>-0-0T0:0:0Z</time></trkpt>
<trkpt lat="46.407552799" lon="6.141826557"><ele>726</ele><time>-0-0T0:0:0Z</time></trkpt>
<trkpt lat="46.407558918" lon="6.141850948"><ele>725</ele><time>-0-0T0:0:0Z</time></trkpt>
<trkpt lat="46.407558918" lon="6.142215729"><ele>720</ele><time>-0-0T0:0:0Z</time></trkpt>
<trkpt lat="46.40753746" lon="6.142516136"><ele>716</ele><time>-0-0T0:0:0Z</time></trkpt>
<trkpt lat="46.40751600299999" lon="6.142644882"><ele>714</ele><time>-0-0T0:0:0Z</time></trkpt>
<trkpt lat="46.407473087" lon="6.142773628"><ele>711</ele><time>-0-0T0:0:0Z</time></trkpt>
<trkpt lat="46.407473087" lon="6.142816544"><ele>711</ele><time>-0-0T0:0:0Z</time></trkpt>
<trkpt lat="46.407420198" lon="6.142939925"><ele>709</ele><time>-0-0T0:0:0Z</time></trkpt>
<trkpt lat="46.407420198" lon="6.142940009"><ele>709</ele><time>-0-0T0:0:0Z</time></trkpt>
<trkpt lat="46.407420198" lon="6.142939925"><ele>709</ele><time>-0-0T0:0:0Z</time></trkpt>
<trkpt lat="46.407408714" lon="6.142966747"><ele>708</ele><time>-0-0T0:0:0Z</time></trkpt>
<trkpt lat="46.407322884" lon="6.143138409"><ele>697</ele><time>-0-0T0:0:0Z</time></trkpt>
<trkpt lat="46.407194138" lon="6.143374443"><ele>689</ele><time>-0-0T0:0:0Z</time></trkpt>
<trkpt lat="46.407065392" lon="6.143653393"><ele>699</ele><time>-0-0T0:0:0Z</time></trkpt>
<trkpt lat="46.40704636500001" lon="6.14369153"><ele>698</ele><time>-0-0T0:0:0Z</time></trkpt>
<trkpt lat="46.407046281" lon="6.143691614"><ele>698</ele><time>-0-0T0:0:0Z</time></trkpt>
<trkpt lat="46.40704636500001" lon="6.14369153"><ele>698</ele><time>-0-0T0:0:0Z</time></trkpt>
<trkpt lat="46.406979561" lon="6.143825054"><ele>697</ele><time>-0-0T0:0:0Z</time></trkpt>
<trkpt lat="46.40689373000001" lon="6.144104004"><ele>692</ele><time>-0-0T0:0:0Z</time></trkpt>
<trkpt lat="46.40682935699999" lon="6.144361495999999"><ele>687</ele><time>-0-0T0:0:0Z</time></trkpt>
<trkpt lat="46.40681603" lon="6.144411452"><ele>686</ele><time>-0-0T0:0:0Z</time></trkpt>
<trkpt lat="46.40681603" lon="6.144411620000001"><ele>686</ele><time>-0-0T0:0:0Z</time></trkpt>
<trkpt lat="46.40681603" lon="6.144411452"><ele>686</ele><time>-0-0T0:0:0Z</time></trkpt>
<trkpt lat="46.406743526" lon="6.144683361000001"><ele>681</ele><time>-0-0T0:0:0Z</time></trkpt>
<trkpt lat="46.406715196" lon="6.144882096"><ele>679</ele><time>-0-0T0:0:0Z</time></trkpt>
<trkpt lat="46.40671511200001" lon="6.14488218"><ele>679</ele><time>-0-0T0:0:0Z</time></trkpt>
<trkpt lat="46.406715196" lon="6.144882096"><ele>679</ele><time>-0-0T0:0:0Z</time></trkpt>
<trkpt lat="46.40670061099999" lon="6.144983768"><ele>679</ele><time>-0-0T0:0:0Z</time></trkpt>
<trkpt lat="46.406679153" lon="6.145112514"><ele>678</ele><time>-0-0T0:0:0Z</time></trkpt>
<trkpt lat="46.40661478" lon="6.145133972000001"><ele>677</ele><time>-0-0T0:0:0Z</time></trkpt>
<trkpt lat="46.406550407" lon="6.145198345"><ele>676</ele><time>-0-0T0:0:0Z</time></trkpt>
<trkpt lat="46.406443119" lon="6.145305633999999"><ele>673</ele><time>-0-0T0:0:0Z</time></trkpt>
<trkpt lat="46.406314373" lon="6.145455837000001"><ele>670</ele><time>-0-0T0:0:0Z</time></trkpt>
<trkpt lat="46.4062557" lon="6.145558516"><ele>668</ele><time>-0-0T0:0:0Z</time></trkpt>
<trkpt lat="46.406255784" lon="6.145558432"><ele>668</ele><time>-0-0T0:0:0Z</time></trkpt>
<trkpt lat="46.4062557" lon="6.145558516"><ele>668</ele><time>-0-0T0:0:0Z</time></trkpt>
<trkpt lat="46.406228542" lon="6.145606041"><ele>667</ele><time>-0-0T0:0:0Z</time></trkpt>
<trkpt lat="46.406142712" lon="6.145820618000001"><ele>664</ele><time>-0-0T0:0:0Z</time></trkpt>
<trkpt lat="46.406121254" lon="6.145927906"><ele>662</ele><time>-0-0T0:0:0Z</time></trkpt>
<trkpt lat="46.406056881" lon="6.146142483000001"><ele>660</ele><time>-0-0T0:0:0Z</time></trkpt>
<trkpt lat="46.40603651299999" lon="6.146223787"><ele>659</ele><time>-0-0T0:0:0Z</time></trkpt>
<trkpt lat="46.406036597" lon="6.14622362"><ele>659</ele><time>-0-0T0:0:0Z</time></trkpt>
<trkpt lat="46.40603651299999" lon="6.146223787"><ele>659</ele><time>-0-0T0:0:0Z</time></trkpt>
<trkpt lat="46.406013966" lon="6.146314144000001"><ele>658</ele><time>-0-0T0:0:0Z</time></trkpt>
<trkpt lat="46.40592813500001" lon="6.146485806"><ele>655</ele><time>-0-0T0:0:0Z</time></trkpt>
<trkpt lat="46.40586376200001" lon="6.146614552"><ele>654</ele><time>-0-0T0:0:0Z</time></trkpt>
<trkpt lat="46.405820847" lon="6.146743298"><ele>651</ele><time>-0-0T0:0:0Z</time></trkpt>
<trkpt lat="46.405692101" lon="6.147108078"><ele>641</ele><time>-0-0T0:0:0Z</time></trkpt>
<trkpt lat="46.405692101" lon="6.147108078"><ele>641</ele><time>-0-0T0:0:0Z</time></trkpt>
<trkpt lat="46.405692101" lon="6.147108078"><ele>641</ele><time>-0-0T0:0:0Z</time></trkpt>
<trkpt lat="46.405820847" lon="6.147172451"><ele>642</ele><time>-0-0T0:0:0Z</time></trkpt>
<trkpt lat="46.405713558" lon="6.147322655"><ele>640</ele><time>-0-0T0:0:0Z</time></trkpt>
<trkpt lat="46.405641809" lon="6.147437487"><ele>637</ele><time>-0-0T0:0:0Z</time></trkpt>
<trkpt lat="46.405641893" lon="6.147437319000001"><ele>637</ele><time>-0-0T0:0:0Z</time></trkpt>
<trkpt lat="46.405549692" lon="6.147623649"><ele>632</ele><time>-0-0T0:0:0Z</time></trkpt>
<trkpt lat="46.405231347" lon="6.147213019"><ele>634</ele><time>-0-0T0:0:0Z</time></trkpt>
<trkpt lat="46.404840499" lon="6.146654701000001"><ele>634</ele><time>-0-0T0:0:0Z</time></trkpt>
<trkpt lat="46.404574374" lon="6.146205011999999"><ele>635</ele><time>-0-0T0:0:0Z</time></trkpt>
<trkpt lat="46.403881693" lon="6.145691872"><ele>628</ele><time>-0-0T0:0:0Z</time></trkpt>
<trkpt lat="46.40322078" lon="6.146092191"><ele>619</ele><time>-0-0T0:0:0Z</time></trkpt>
<trkpt lat="46.402830686" lon="6.14611432"><ele>617</ele><time>-0-0T0:0:0Z</time></trkpt>
<trkpt lat="46.401872635" lon="6.146056652"><ele>611</ele><time>-0-0T0:0:0Z</time></trkpt>
<trkpt lat="46.401872635" lon="6.146056652"><ele>611</ele><time>-0-0T0:0:0Z</time></trkpt>
<trkpt lat="46.40182972" lon="6.14616394"><ele>610</ele><time>-0-0T0:0:0Z</time></trkpt>
<trkpt lat="46.40172243100001" lon="6.146357059000001"><ele>608</ele><time>-0-0T0:0:0Z</time></trkpt>
<trkpt lat="46.401615143" lon="6.146571636"><ele>607</ele><time>-0-0T0:0:0Z</time></trkpt>
<trkpt lat="46.40140056599999" lon="6.146829128"><ele>603</ele><time>-0-0T0:0:0Z</time></trkpt>
<trkpt lat="46.401100159" lon="6.147215366"><ele>592</ele><time>-0-0T0:0:0Z</time></trkpt>
<trkpt lat="46.401035786" lon="6.147301197"><ele>590</ele><time>-0-0T0:0:0Z</time></trkpt>
<trkpt lat="46.401035786" lon="6.147301197"><ele>590</ele><time>-0-0T0:0:0Z</time></trkpt>
<trkpt lat="46.401035786" lon="6.147301197"><ele>590</ele><time>-0-0T0:0:0Z</time></trkpt>
<trkpt lat="46.400949955" lon="6.147344112"><ele>589</ele><time>-0-0T0:0:0Z</time></trkpt>
<trkpt lat="46.400842667" lon="6.147387028"><ele>590</ele><time>-0-0T0:0:0Z</time></trkpt>
<trkpt lat="46.40062809" lon="6.147429943"><ele>590</ele><time>-0-0T0:0:0Z</time></trkpt>
<trkpt lat="46.400392056" lon="6.147472858"><ele>588</ele><time>-0-0T0:0:0Z</time></trkpt>
<trkpt lat="46.400134563" lon="6.147537231"><ele>586</ele><time>-0-0T0:0:0Z</time></trkpt>
<trkpt lat="46.399877071" lon="6.14764452"><ele>584</ele><time>-0-0T0:0:0Z</time></trkpt>
<trkpt lat="46.399683952" lon="6.14773035"><ele>582</ele><time>-0-0T0:0:0Z</time></trkpt>
<trkpt lat="46.399645479" lon="6.147748372"><ele>582</ele><time>-0-0T0:0:0Z</time></trkpt>
<trkpt lat="46.399645563" lon="6.147748372"><ele>582</ele><time>-0-0T0:0:0Z</time></trkpt>
<trkpt lat="46.399645479" lon="6.147748372"><ele>582</ele><time>-0-0T0:0:0Z</time></trkpt>
<trkpt lat="46.399040222" lon="6.148030758"><ele>573</ele><time>-0-0T0:0:0Z</time></trkpt>
<trkpt lat="46.398890018" lon="6.148116589"><ele>569</ele><time>-0-0T0:0:0Z</time></trkpt>
<trkpt lat="46.39878273" lon="6.148202419"><ele>568</ele><time>-0-0T0:0:0Z</time></trkpt>
<trkpt lat="46.398675442" lon="6.148331165"><ele>567</ele><time>-0-0T0:0:0Z</time></trkpt>
<trkpt lat="46.39833211900001" lon="6.148824692"><ele>563</ele><time>-0-0T0:0:0Z</time></trkpt>
<trkpt lat="46.39812810299999" lon="6.149115041000001"><ele>563</ele><time>-0-0T0:0:0Z</time></trkpt>
<trkpt lat="46.39812810299999" lon="6.149115041000001"><ele>563</ele><time>-0-0T0:0:0Z</time></trkpt>
<trkpt lat="46.39812810299999" lon="6.149115041000001"><ele>563</ele><time>-0-0T0:0:0Z</time></trkpt>
<trkpt lat="46.39777422" lon="6.149618626"><ele>564</ele><time>-0-0T0:0:0Z</time></trkpt>
<trkpt lat="46.397624016" lon="6.149811745"><ele>563</ele><time>-0-0T0:0:0Z</time></trkpt>
<trkpt lat="46.397838593" lon="6.150133609999999"><ele>563</ele><time>-0-0T0:0:0Z</time></trkpt>
<trkpt lat="46.398011008" lon="6.150375009"><ele>563</ele><time>-0-0T0:0:0Z</time></trkpt>
<trkpt lat="46.398010924" lon="6.150374841000001"><ele>563</ele><time>-0-0T0:0:0Z</time></trkpt>
<trkpt lat="46.398011008" lon="6.150375009"><ele>563</ele><time>-0-0T0:0:0Z</time></trkpt>
<trkpt lat="46.398053169" lon="6.150434017"><ele>563</ele><time>-0-0T0:0:0Z</time></trkpt>
<trkpt lat="46.39839649200001" lon="6.150970459"><ele>562</ele><time>-0-0T0:0:0Z</time></trkpt>
<trkpt lat="46.39850378" lon="6.151120663"><ele>561</ele><time>-0-0T0:0:0Z</time></trkpt>
<trkpt lat="46.398632526" lon="6.151270865999999"><ele>560</ele><time>-0-0T0:0:0Z</time></trkpt>
<trkpt lat="46.398890018" lon="6.151485443"><ele>563</ele><time>-0-0T0:0:0Z</time></trkpt>
<trkpt lat="46.399018764" lon="6.151592730999999"><ele>563</ele><time>-0-0T0:0:0Z</time></trkpt>
<trkpt lat="46.39925479900001" lon="6.151742935"><ele>563</ele><time>-0-0T0:0:0Z</time></trkpt>
<trkpt lat="46.399598122" lon="6.151957511999999"><ele>564</ele><time>-0-0T0:0:0Z</time></trkpt>
<trkpt lat="46.39965059199999" lon="6.151992464"><ele>563</ele><time>-0-0T0:0:0Z</time></trkpt>
<trkpt lat="46.39965059199999" lon="6.151992464"><ele>563</ele><time>-0-0T0:0:0Z</time></trkpt>
<trkpt lat="46.39965059199999" lon="6.151992464"><ele>563</ele><time>-0-0T0:0:0Z</time></trkpt>
<trkpt lat="46.399791241" lon="6.152086257999999"><ele>565</ele><time>-0-0T0:0:0Z</time></trkpt>
<trkpt lat="46.399855614" lon="6.152172088999999"><ele>563</ele><time>-0-0T0:0:0Z</time></trkpt>
<trkpt lat="46.399962902" lon="6.152279377000001"><ele>561</ele><time>-0-0T0:0:0Z</time></trkpt>
<trkpt lat="46.400198936" lon="6.152515411000001"><ele>559</ele><time>-0-0T0:0:0Z</time></trkpt>
<trkpt lat="46.40043497100001" lon="6.15270853"><ele>558</ele><time>-0-0T0:0:0Z</time></trkpt>
<trkpt lat="46.400671005" lon="6.152901649"><ele>559</ele><time>-0-0T0:0:0Z</time></trkpt>
<trkpt lat="46.400778294" lon="6.15298748"><ele>559</ele><time>-0-0T0:0:0Z</time></trkpt>
<trkpt lat="46.401164532" lon="6.153545380000001"><ele>558</ele><time>-0-0T0:0:0Z</time></trkpt>
<trkpt lat="46.401357651" lon="6.153781414000001"><ele>560</ele><time>-0-0T0:0:0Z</time></trkpt>
<trkpt lat="46.401507854" lon="6.153974533"><ele>560</ele><time>-0-0T0:0:0Z</time></trkpt>
<trkpt lat="46.401572227" lon="6.154081821"><ele>560</ele><time>-0-0T0:0:0Z</time></trkpt>
<trkpt lat="46.40162201599999" lon="6.154171424000001"><ele>560</ele><time>-0-0T0:0:0Z</time></trkpt>
<trkpt lat="46.401621932" lon="6.154171424000001"><ele>560</ele><time>-0-0T0:0:0Z</time></trkpt>
<trkpt lat="46.40162201599999" lon="6.154171424000001"><ele>560</ele><time>-0-0T0:0:0Z</time></trkpt>
<trkpt lat="46.401679516" lon="6.154274940000001"><ele>561</ele><time>-0-0T0:0:0Z</time></trkpt>
<trkpt lat="46.401808262" lon="6.154532433"><ele>561</ele><time>-0-0T0:0:0Z</time></trkpt>
<trkpt lat="46.40191555" lon="6.154768467"><ele>562</ele><time>-0-0T0:0:0Z</time></trkpt>
<trkpt lat="46.401958466" lon="6.154897213"><ele>563</ele><time>-0-0T0:0:0Z</time></trkpt>
<trkpt lat="46.402044296" lon="6.155090332"><ele>565</ele><time>-0-0T0:0:0Z</time></trkpt>
<trkpt lat="46.402173042" lon="6.155326366000001"><ele>568</ele><time>-0-0T0:0:0Z</time></trkpt>
<trkpt lat="46.402301788" lon="6.155583858"><ele>568</ele><time>-0-0T0:0:0Z</time></trkpt>
<trkpt lat="46.40243053399999" lon="6.155819893"><ele>569</ele><time>-0-0T0:0:0Z</time></trkpt>
<trkpt lat="46.402709484" lon="6.15639925"><ele>572</ele><time>-0-0T0:0:0Z</time></trkpt>
<trkpt lat="46.402940573" lon="6.156770736000001"><ele>565</ele><time>-0-0T0:0:0Z</time></trkpt>
<trkpt lat="46.402940489" lon="6.156770651999999"><ele>565</ele><time>-0-0T0:0:0Z</time></trkpt>
<trkpt lat="46.402940573" lon="6.156770736000001"><ele>565</ele><time>-0-0T0:0:0Z</time></trkpt>
<trkpt lat="46.40331029899999" lon="6.157364845"><ele>564</ele><time>-0-0T0:0:0Z</time></trkpt>
<trkpt lat="46.403546333" lon="6.157815456"><ele>564</ele><time>-0-0T0:0:0Z</time></trkpt>
<trkpt lat="46.403610706" lon="6.157944202"><ele>564</ele><time>-0-0T0:0:0Z</time></trkpt>
<trkpt lat="46.403653622" lon="6.158072948"><ele>564</ele><time>-0-0T0:0:0Z</time></trkpt>
<trkpt lat="46.403675079" lon="6.15824461"><ele>563</ele><time>-0-0T0:0:0Z</time></trkpt>
<trkpt lat="46.40371631800001" lon="6.158450805"><ele>563</ele><time>-0-0T0:0:0Z</time></trkpt>
<trkpt lat="46.40371631800001" lon="6.158450721"><ele>563</ele><time>-0-0T0:0:0Z</time></trkpt>
<trkpt lat="46.40371631800001" lon="6.158450805"><ele>563</ele><time>-0-0T0:0:0Z</time></trkpt>
<trkpt lat="46.403717995" lon="6.158459186999999"><ele>563</ele><time>-0-0T0:0:0Z</time></trkpt>
<trkpt lat="46.403803825" lon="6.158695221000001"><ele>566</ele><time>-0-0T0:0:0Z</time></trkpt>
<trkpt lat="46.403889656" lon="6.158931255"><ele>564</ele><time>-0-0T0:0:0Z</time></trkpt>
<trkpt lat="46.403954029" lon="6.159060001000001"><ele>563</ele><time>-0-0T0:0:0Z</time></trkpt>
<trkpt lat="46.40403986" lon="6.159274577999999"><ele>561</ele><time>-0-0T0:0:0Z</time></trkpt>
<trkpt lat="46.404190063" lon="6.159574986"><ele>560</ele><time>-0-0T0:0:0Z</time></trkpt>
<trkpt lat="46.404361725" lon="6.159896851"><ele>559</ele><time>-0-0T0:0:0Z</time></trkpt>
<trkpt lat="46.404469013" lon="6.160111427000001"><ele>558</ele><time>-0-0T0:0:0Z</time></trkpt>
<trkpt lat="46.404627683" lon="6.160369422"><ele>558</ele><time>-0-0T0:0:0Z</time></trkpt>
<trkpt lat="46.404627683" lon="6.160369254999999"><ele>558</ele><time>-0-0T0:0:0Z</time></trkpt>
<trkpt lat="46.404627683" lon="6.160369422"><ele>558</ele><time>-0-0T0:0:0Z</time></trkpt>
<trkpt lat="46.40464067500001" lon="6.160390377"><ele>558</ele><time>-0-0T0:0:0Z</time></trkpt>
<trkpt lat="46.40491962400001" lon="6.160776614999999"><ele>557</ele><time>-0-0T0:0:0Z</time></trkpt>
<trkpt lat="46.405091286" lon="6.160991192"><ele>556</ele><time>-0-0T0:0:0Z</time></trkpt>
<trkpt lat="46.40547752399999" lon="6.161592007"><ele>552</ele><time>-0-0T0:0:0Z</time></trkpt>
<trkpt lat="46.40567064300001" lon="6.161870956000001"><ele>553</ele><time>-0-0T0:0:0Z</time></trkpt>
<trkpt lat="46.405777931" lon="6.162042618"><ele>553</ele><time>-0-0T0:0:0Z</time></trkpt>
<trkpt lat="46.40588522" lon="6.162149906000001"><ele>553</ele><time>-0-0T0:0:0Z</time></trkpt>
<trkpt lat="46.406078339" lon="6.162321568"><ele>553</ele><time>-0-0T0:0:0Z</time></trkpt>
<trkpt lat="46.406133659" lon="6.162399016000001"><ele>554</ele><time>-0-0T0:0:0Z</time></trkpt>
<trkpt lat="46.406133575" lon="6.162398849"><ele>554</ele><time>-0-0T0:0:0Z</time></trkpt>
<trkpt lat="46.406133659" lon="6.162399016000001"><ele>554</ele><time>-0-0T0:0:0Z</time></trkpt>
<trkpt lat="46.406185627" lon="6.162471771"><ele>555</ele><time>-0-0T0:0:0Z</time></trkpt>
<trkpt lat="46.40625" lon="6.162600517"><ele>555</ele><time>-0-0T0:0:0Z</time></trkpt>
<trkpt lat="46.406314373" lon="6.162686348"><ele>555</ele><time>-0-0T0:0:0Z</time></trkpt>
<trkpt lat="46.406357288" lon="6.162858009"><ele>555</ele><time>-0-0T0:0:0Z</time></trkpt>
<trkpt lat="46.406378746" lon="6.162965298000001"><ele>555</ele><time>-0-0T0:0:0Z</time></trkpt>
<trkpt lat="46.406013044" lon="6.163390343999999"><ele>553</ele><time>-0-0T0:0:0Z</time></trkpt>
<trkpt lat="46.406013044" lon="6.163390343999999"><ele>553</ele><time>-0-0T0:0:0Z</time></trkpt>
<trkpt lat="46.406013044" lon="6.163390343999999"><ele>553</ele><time>-0-0T0:0:0Z</time></trkpt>
<trkpt lat="46.405622028" lon="6.163844727"><ele>552</ele><time>-0-0T0:0:0Z</time></trkpt>
<trkpt lat="46.405622112" lon="6.163844643000001"><ele>552</ele><time>-0-0T0:0:0Z</time></trkpt>
<trkpt lat="46.405220032" lon="6.164317131"><ele>548</ele><time>-0-0T0:0:0Z</time></trkpt>
<trkpt lat="46.405220032" lon="6.164317131"><ele>548</ele><time>-0-0T0:0:0Z</time></trkpt>
<trkpt lat="46.404898167" lon="6.164703369"><ele>548</ele><time>-0-0T0:0:0Z</time></trkpt>
<trkpt lat="46.404747963" lon="6.164917945999999"><ele>547</ele><time>-0-0T0:0:0Z</time></trkpt>
<trkpt lat="46.404705048" lon="6.164982319"><ele>547</ele><time>-0-0T0:0:0Z</time></trkpt>
<trkpt lat="46.404705048" lon="6.165089607"><ele>547</ele><time>-0-0T0:0:0Z</time></trkpt>
<trkpt lat="46.40479087799999" lon="6.165261269"><ele>546</ele><time>-0-0T0:0:0Z</time></trkpt>
<trkpt lat="46.404876709" lon="6.16543293"><ele>546</ele><time>-0-0T0:0:0Z</time></trkpt>
<trkpt lat="46.404898167" lon="6.165647506999999"><ele>546</ele><time>-0-0T0:0:0Z</time></trkpt>
<trkpt lat="46.404914092" lon="6.166044222"><ele>545</ele><time>-0-0T0:0:0Z</time></trkpt>
<trkpt lat="46.404914092" lon="6.166044222"><ele>545</ele><time>-0-0T0:0:0Z</time></trkpt>
<trkpt lat="46.404914092" lon="6.166044222"><ele>545</ele><time>-0-0T0:0:0Z</time></trkpt>
<trkpt lat="46.40491962400001" lon="6.166183948999999"><ele>545</ele><time>-0-0T0:0:0Z</time></trkpt>
<trkpt lat="46.40498399700001" lon="6.166441441"><ele>544</ele><time>-0-0T0:0:0Z</time></trkpt>
<trkpt lat="46.405198574" lon="6.167085171"><ele>544</ele><time>-0-0T0:0:0Z</time></trkpt>
<trkpt lat="46.405370235" lon="6.167685986"><ele>543</ele><time>-0-0T0:0:0Z</time></trkpt>
<trkpt lat="46.40532732" lon="6.167728901"><ele>543</ele><time>-0-0T0:0:0Z</time></trkpt>
<trkpt lat="46.405187929" lon="6.167888240999999"><ele>542</ele><time>-0-0T0:0:0Z</time></trkpt>
<trkpt lat="46.40518784499999" lon="6.167888240999999"><ele>542</ele><time>-0-0T0:0:0Z</time></trkpt>
<trkpt lat="46.405187929" lon="6.167888240999999"><ele>542</ele><time>-0-0T0:0:0Z</time></trkpt>
<trkpt lat="46.405177116" lon="6.167900562"><ele>542</ele><time>-0-0T0:0:0Z</time></trkpt>
<trkpt lat="46.405005455" lon="6.168200970000001"><ele>541</ele><time>-0-0T0:0:0Z</time></trkpt>
<trkpt lat="46.404705048" lon="6.168608665000001"><ele>539</ele><time>-0-0T0:0:0Z</time></trkpt>
<trkpt lat="46.404211521" lon="6.169316769"><ele>536</ele><time>-0-0T0:0:0Z</time></trkpt>
<trkpt lat="46.404018402" lon="6.169595718"><ele>536</ele><time>-0-0T0:0:0Z</time></trkpt>
<trkpt lat="46.40389787" lon="6.169756232"><ele>537</ele><time>-0-0T0:0:0Z</time></trkpt>
<trkpt lat="46.40394455799999" lon="6.169830160000001"><ele>536</ele><time>-0-0T0:0:0Z</time></trkpt>
<trkpt lat="46.40389787" lon="6.169756232"><ele>537</ele><time>-0-0T0:0:0Z</time></trkpt>
<trkpt lat="46.403889656" lon="6.16976738"><ele>537</ele><time>-0-0T0:0:0Z</time></trkpt>
<trkpt lat="46.403782368" lon="6.169939041"><ele>537</ele><time>-0-0T0:0:0Z</time></trkpt>
<trkpt lat="46.40350341799999" lon="6.170217991"><ele>537</ele><time>-0-0T0:0:0Z</time></trkpt>
<trkpt lat="46.403224468" lon="6.170539856"><ele>537</ele><time>-0-0T0:0:0Z</time></trkpt>
<trkpt lat="46.403095722" lon="6.17069006"><ele>538</ele><time>-0-0T0:0:0Z</time></trkpt>
<trkpt lat="46.402966976" lon="6.170861721"><ele>538</ele><time>-0-0T0:0:0Z</time></trkpt>
<trkpt lat="46.40268802599999" lon="6.171183586"><ele>537</ele><time>-0-0T0:0:0Z</time></trkpt>
<trkpt lat="46.402652822" lon="6.171239326"><ele>537</ele><time>-0-0T0:0:0Z</time></trkpt>
<trkpt lat="46.402652655" lon="6.171239493"><ele>537</ele><time>-0-0T0:0:0Z</time></trkpt>
<trkpt lat="46.402652822" lon="6.171239326"><ele>537</ele><time>-0-0T0:0:0Z</time></trkpt>
<trkpt lat="46.40243053399999" lon="6.171591282"><ele>535</ele><time>-0-0T0:0:0Z</time></trkpt>
<trkpt lat="46.40240907700001" lon="6.171634197"><ele>535</ele><time>-0-0T0:0:0Z</time></trkpt>
<trkpt lat="46.402323246" lon="6.171762943"><ele>535</ele><time>-0-0T0:0:0Z</time></trkpt>
<trkpt lat="46.402044296" lon="6.172213554"><ele>535</ele><time>-0-0T0:0:0Z</time></trkpt>
<trkpt lat="46.40165805800001" lon="6.172814369"><ele>534</ele><time>-0-0T0:0:0Z</time></trkpt>
<trkpt lat="46.40146493899999" lon="6.173157691999999"><ele>533</ele><time>-0-0T0:0:0Z</time></trkpt>
<trkpt lat="46.40146493899999" lon="6.173222065"><ele>532</ele><time>-0-0T0:0:0Z</time></trkpt>
<trkpt lat="46.401422024" lon="6.173307896"><ele>532</ele><time>-0-0T0:0:0Z</time></trkpt>
<trkpt lat="46.401443481" lon="6.173307896"><ele>532</ele><time>-0-0T0:0:0Z</time></trkpt>
<trkpt lat="46.401422024" lon="6.173307896"><ele>532</ele><time>-0-0T0:0:0Z</time></trkpt>
<trkpt lat="46.40146493899999" lon="6.173222065"><ele>532</ele><time>-0-0T0:0:0Z</time></trkpt>
<trkpt lat="46.40146493899999" lon="6.173157691999999"><ele>533</ele><time>-0-0T0:0:0Z</time></trkpt>
<trkpt lat="46.401422024" lon="6.173071861000001"><ele>533</ele><time>-0-0T0:0:0Z</time></trkpt>
<trkpt lat="46.40140056599999" lon="6.173007488"><ele>533</ele><time>-0-0T0:0:0Z</time></trkpt>
<trkpt lat="46.401314735" lon="6.172857285"><ele>533</ele><time>-0-0T0:0:0Z</time></trkpt>
<trkpt lat="46.401228905" lon="6.172685623"><ele>533</ele><time>-0-0T0:0:0Z</time></trkpt>
<trkpt lat="46.401078701" lon="6.172471045999999"><ele>534</ele><time>-0-0T0:0:0Z</time></trkpt>
<trkpt lat="46.40090704" lon="6.172235012"><ele>534</ele><time>-0-0T0:0:0Z</time></trkpt>
<trkpt lat="46.400692463" lon="6.171998978"><ele>532</ele><time>-0-0T0:0:0Z</time></trkpt>
<trkpt lat="46.40054787499999" lon="6.171830082"><ele>532</ele><time>-0-0T0:0:0Z</time></trkpt>
<trkpt lat="46.400547959" lon="6.17183025"><ele>532</ele><time>-0-0T0:0:0Z</time></trkpt>
</trkseg></trk></gpx>